PBO Station Position Time Series. Reference Frame : NAM14
Format Version,1.1.0
4-character ID,P365
Station name,SWOregnCC_OR2007
Begin Date, 2007-08-02
End Date, 2019-10-07
Release Date, 2019-10-08
Reference position, 43.3955185293 North Latitude, -124.2534826091 East Longitude, 27.10379 meters elevation,
Date, North (mm), East (mm), Vertical (mm), North Std. Deviation (mm), East Std. Deviation (mm),              Vertical Std. Deviation (mm), Quality,
2007-08-02,0.00, 0.00, 0.00, 2.08, 1.53, 6.91, repro,
2007-08-03,2.48, -0.73, -8.59, 2.06, 1.52, 6.82, repro,
2007-08-04,2.92, -0.71, -2.97, 2.06, 1.52, 6.84, repro,
2007-08-05,2.23, -1.01, 0.67, 2.08, 1.53, 6.91, repro,
2007-08-06,2.08, -1.21, 4.56, 2.14, 1.58, 7.11, repro,
2007-08-07,1.92, -0.91, 0.78, 2.13, 1.57, 7.08, repro,
2007-08-08,2.06, -1.20, 0.59, 2.06, 1.52, 6.85, repro,
2007-08-09,1.91, -1.01, -1.65, 2.06, 1.52, 6.86, repro,
2007-08-10,2.27, -1.44, 2.79, 2.07, 1.52, 6.92, repro,
2007-08-11,2.75, -0.67, 1.85, 2.09, 1.53, 6.93, repro,
2007-08-12,1.92, -1.16, -2.75, 2.09, 1.55, 6.97, repro,
2007-08-13,2.28, -0.71, -6.50, 2.07, 1.52, 6.85, repro,
2007-08-14,1.67, -2.07, -3.39, 2.19, 1.64, 7.28, repro,
2007-08-15,1.73, -2.04, -4.97, 2.20, 1.65, 7.31, repro,
2007-08-16,3.04, -2.15, 3.63, 2.17, 1.60, 7.15, repro,
2007-08-17,2.09, -2.35, 2.21, 2.20, 1.61, 7.24, repro,
2007-08-18,1.60, -0.20, -7.42, 2.23, 1.64, 7.40, repro,
2007-08-19,2.12, -1.96, -2.23, 2.21, 1.62, 7.32, repro,
2007-08-20,1.75, -1.28, 0.54, 2.15, 1.57, 7.09, repro,
2007-08-21,1.39, -1.11, 0.54, 2.16, 1.57, 7.10, repro,
2007-08-22,1.33, -1.75, -0.16, 2.19, 1.58, 7.16, repro,
2007-08-23,2.30, -1.91, 2.11, 2.13, 1.55, 7.03, repro,
2007-08-24,2.77, -2.07, 2.97, 2.25, 1.63, 7.35, repro,
2007-08-25,1.59, -2.70, -3.86, 2.18, 1.60, 7.25, repro,
2007-08-26,1.60, -2.88, 13.73, 2.22, 1.64, 7.38, repro,
2007-08-27,1.69, -2.79, 2.24, 2.23, 1.64, 7.38, repro,
2007-08-28,1.83, -1.40, -0.45, 2.19, 1.62, 7.33, repro,
2007-08-29,2.80, -1.71, -4.95, 2.19, 1.62, 7.27, repro,
2007-08-30,3.60, -2.08, 0.97, 2.19, 1.60, 7.29, repro,
2007-08-31,1.32, -1.58, -3.71, 2.24, 1.65, 7.47, repro,
2007-09-01,1.63, -2.93, -0.60, 2.17, 1.60, 7.20, repro,
2007-09-02,1.75, -2.28, -5.60, 2.19, 1.60, 7.28, repro,
2007-09-03,2.25, -2.52, 2.83, 2.18, 1.61, 7.25, repro,
2007-09-04,2.54, -2.62, -1.89, 2.26, 1.71, 7.63, repro,
2007-09-05,1.91, -3.10, 1.36, 2.19, 1.60, 7.22, repro,
2007-09-06,1.31, -2.64, 1.69, 2.19, 1.60, 7.25, repro,
2007-09-07,1.23, -2.37, 2.48, 2.18, 1.60, 7.26, repro,
2007-09-08,2.08, -2.46, -3.16, 2.26, 1.68, 7.60, repro,
2007-09-09,2.13, -3.14, -0.85, 2.27, 1.69, 7.63, repro,
2007-09-10,1.52, -2.43, -1.14, 2.18, 1.60, 7.22, repro,
2007-09-11,2.01, -1.81, -3.58, 2.23, 1.66, 7.53, repro,
2007-09-12,2.12, -2.01, -2.90, 2.25, 1.65, 7.52, repro,
2007-09-13,2.52, -2.57, 5.22, 2.20, 1.61, 7.32, repro,
2007-09-14,2.12, -2.14, -7.56, 2.23, 1.64, 7.47, repro,
2007-09-15,1.94, -1.82, -2.23, 2.26, 1.64, 7.54, repro,
2007-09-16,1.32, -2.28, -0.66, 2.26, 1.71, 7.69, repro,
2007-09-17,2.02, -2.02, -1.11, 2.27, 1.72, 7.81, repro,
2007-09-18,2.04, -1.71, -0.49, 2.16, 1.61, 7.25, repro,
2007-09-19,1.90, -2.70, 0.23, 2.09, 1.54, 6.96, repro,
2007-09-20,0.74, -1.40, 3.67, 2.12, 1.55, 7.04, repro,
2007-09-21,1.58, -0.98, 0.30, 2.18, 1.58, 7.26, repro,
2007-09-22,2.11, -2.55, 2.33, 2.20, 1.59, 7.21, repro,
2007-09-23,2.54, -1.20, -1.72, 2.20, 1.59, 7.21, repro,
2007-09-24,1.80, -0.48, -0.20, 2.25, 1.62, 7.41, repro,
2007-09-25,1.99, -0.48, -4.83, 2.17, 1.57, 7.21, repro,
2007-09-26,1.04, -2.07, 1.03, 2.20, 1.56, 7.14, repro,
2007-09-27,1.40, -1.62, -1.77, 2.18, 1.58, 7.25, repro,
2007-09-28,3.43, -0.76, 3.88, 2.25, 1.69, 7.44, repro,
2007-09-29,2.24, -1.52, -4.64, 2.19, 1.62, 7.28, repro,
2007-09-30,2.18, -1.16, -1.87, 2.22, 1.64, 7.30, repro,
2007-10-01,1.46, -0.61, -0.29, 2.19, 1.62, 7.23, repro,
2007-10-02,2.29, -0.19, 3.50, 2.23, 1.68, 7.49, repro,
2007-10-03,1.09, -0.40, -0.30, 2.25, 1.69, 7.56, repro,
2007-10-04,2.30, -0.60, 3.62, 2.26, 1.65, 7.48, repro,
2007-10-05,1.97, -0.60, 0.70, 2.29, 1.75, 7.82, repro,
2007-10-06,2.68, 1.16, -1.58, 2.18, 1.61, 7.23, repro,
2007-10-07,1.93, -0.08, -2.82, 2.23, 1.64, 7.37, repro,
2007-10-08,0.73, -0.91, -6.74, 2.46, 1.75, 8.05, repro,
2007-10-09,0.44, -0.19, 3.14, 2.27, 1.72, 7.72, repro,
2007-10-10,0.15, 0.91, -3.03, 2.34, 1.69, 7.76, repro,
2007-10-11,2.75, 0.67, -4.12, 2.18, 1.62, 7.24, repro,
2007-10-12,1.63, -1.09, -0.49, 2.25, 1.65, 7.42, repro,
2007-10-13,2.82, -0.99, 2.69, 2.12, 1.57, 7.10, repro,
2007-10-14,2.04, -1.13, -0.33, 2.13, 1.57, 7.11, repro,
2007-10-15,1.52, 0.45, -0.79, 2.26, 1.66, 7.60, repro,
2007-10-16,1.40, 0.35, 3.98, 2.14, 1.59, 7.19, repro,
2007-10-17,3.63, 1.15, -0.91, 2.14, 1.57, 7.11, repro,
2007-10-18,2.07, 0.88, 5.83, 2.13, 1.57, 7.12, repro,
2007-10-19,1.52, -1.19, 0.46, 2.13, 1.58, 7.17, repro,
2007-10-20,0.49, 0.25, 7.34, 2.18, 1.62, 7.36, repro,
2007-10-21,1.50, 0.42, -8.75, 2.13, 1.58, 7.13, repro,
2007-10-22,2.26, 0.53, -8.12, 2.13, 1.56, 7.16, repro,
2007-10-23,2.57, -0.36, -6.37, 2.20, 1.63, 7.33, repro,
2007-10-24,1.93, 0.81, 0.52, 2.22, 1.66, 7.48, repro,
2007-10-25,2.93, -0.03, -6.36, 2.15, 1.57, 7.16, repro,
2007-10-26,2.28, -0.34, -4.89, 2.16, 1.62, 7.28, repro,
2007-10-27,3.55, -0.31, -7.68, 2.11, 1.57, 7.05, repro,
2007-10-28,2.33, 0.05, -5.16, 2.13, 1.57, 7.11, repro,
2007-10-29,2.52, -0.86, -1.95, 2.14, 1.58, 7.18, repro,
2007-10-30,2.99, -0.54, -2.02, 2.12, 1.57, 7.12, repro,
2007-10-31,3.01, 0.48, -7.10, 2.12, 1.58, 7.15, repro,
2007-11-01,2.78, 0.18, -6.94, 2.07, 1.54, 6.89, repro,
2007-11-02,3.93, 0.03, -8.86, 2.07, 1.54, 6.91, repro,
2007-11-03,3.31, -0.13, -10.60, 2.08, 1.55, 6.97, repro,
2007-11-04,2.51, -0.21, -7.22, 2.09, 1.55, 6.98, repro,
2007-11-05,3.24, -0.48, -8.55, 2.08, 1.55, 6.98, repro,
2007-11-06,2.87, -1.14, -10.97, 2.16, 1.62, 7.32, repro,
2007-11-07,2.74, 0.04, -9.10, 2.09, 1.54, 6.96, repro,
2007-11-08,3.16, -0.41, -5.40, 2.14, 1.58, 7.09, repro,
2007-11-09,2.83, 0.20, -5.82, 2.13, 1.57, 7.07, repro,
2007-11-10,2.89, -0.86, -9.12, 2.12, 1.59, 7.26, repro,
2007-11-11,2.77, -1.36, -6.39, 2.09, 1.55, 7.02, repro,
2007-11-12,2.09, 0.24, -4.26, 2.10, 1.55, 7.04, repro,
2007-11-13,2.96, -0.09, -5.89, 2.09, 1.54, 6.98, repro,
2007-11-14,3.49, 0.38, -5.89, 2.10, 1.55, 7.04, repro,
2007-11-15,3.56, 1.88, -7.33, 2.18, 1.61, 7.27, repro,
2007-11-16,3.38, -1.81, -10.13, 2.11, 1.55, 7.14, repro,
2007-11-17,3.34, -0.58, -7.94, 2.09, 1.55, 6.99, repro,
2007-11-18,3.02, -0.81, -6.56, 2.09, 1.54, 6.96, repro,
2007-11-19,3.84, 0.11, -9.71, 2.20, 1.72, 7.49, repro,
2007-11-20,3.56, -0.56, -12.76, 2.09, 1.59, 7.08, repro,
2007-11-21,3.63, 0.17, -16.23, 2.11, 1.63, 7.23, repro,
2007-11-22,3.88, -1.29, -14.75, 2.09, 1.57, 7.04, repro,
2007-11-23,4.23, -0.72, -6.68, 2.17, 1.64, 7.34, repro,
2007-11-24,3.66, -0.80, -8.90, 2.10, 1.59, 7.11, repro,
2007-11-25,3.14, -0.54, -8.82, 2.17, 1.68, 7.30, repro,
2007-11-26,3.73, 1.16, -11.54, 2.17, 1.66, 7.38, repro,
2007-11-27,5.66, -1.51, -9.74, 2.14, 1.63, 7.25, repro,
2007-11-28,2.37, 0.13, -11.35, 2.15, 1.64, 7.21, repro,
2007-11-29,3.55, 0.48, -10.68, 2.16, 1.64, 7.35, repro,
2007-11-30,3.05, -0.35, -14.08, 2.16, 1.64, 7.26, repro,
2007-12-01,4.06, -0.28, -4.30, 2.22, 1.72, 7.61, repro,
2007-12-02,3.12, -0.04, -3.33, 2.20, 1.73, 7.65, repro,
2007-12-03,1.88, -0.16, -0.47, 2.38, 1.82, 8.14, repro,
2007-12-04,2.56, 0.84, -4.11, 2.21, 1.71, 7.75, repro,
2007-12-05,2.74, 1.27, -8.87, 2.27, 1.81, 8.10, repro,
2007-12-06,3.85, 0.68, -3.82, 2.28, 1.81, 7.92, repro,
2007-12-07,2.20, 1.25, -9.76, 2.24, 1.74, 7.68, repro,
2007-12-08,2.88, -0.66, -3.25, 2.16, 1.67, 7.38, repro,
2007-12-09,3.71, -1.11, -2.40, 2.50, 2.24, 9.34, repro,
2007-12-10,4.26, 0.94, -8.47, 2.24, 1.75, 7.61, repro,
2007-12-11,3.25, 1.14, -9.84, 2.25, 1.74, 7.64, repro,
2007-12-12,3.73, -1.79, -9.37, 2.22, 1.66, 7.40, repro,
2007-12-13,4.48, 0.84, -16.81, 2.24, 1.70, 7.49, repro,
2007-12-14,3.16, 0.71, -7.35, 2.15, 1.58, 7.14, repro,
2007-12-15,4.22, 1.22, -2.56, 2.14, 1.59, 7.15, repro,
2007-12-16,4.19, 0.51, -8.28, 2.16, 1.59, 7.19, repro,
2007-12-17,3.26, -0.79, 0.76, 2.21, 1.63, 7.28, repro,
2007-12-18,3.38, -0.68, -2.36, 2.15, 1.58, 7.12, repro,
2007-12-19,1.63, -0.37, -5.22, 2.18, 1.63, 7.38, repro,
2007-12-20,1.85, 1.04, -2.26, 2.15, 1.61, 7.21, repro,
2007-12-21,3.75, 0.58, -6.73, 2.22, 1.70, 7.65, repro,
2007-12-22,4.96, 1.00, -4.75, 2.28, 1.75, 7.78, repro,
2007-12-23,2.28, 0.26, -4.60, 2.19, 1.65, 7.39, repro,
2007-12-24,2.60, 1.35, -12.22, 2.16, 1.61, 7.22, repro,
2007-12-25,4.14, 0.85, -13.85, 2.16, 1.61, 7.26, repro,
2007-12-26,5.45, 1.28, -2.78, 2.16, 1.60, 7.24, repro,
2007-12-27,4.38, 2.46, -5.35, 2.19, 1.63, 7.39, repro,
2007-12-28,3.55, 2.01, -6.02, 2.20, 1.64, 7.42, repro,
2007-12-29,3.32, 2.06, -2.80, 2.20, 1.59, 7.29, repro,
2007-12-30,2.76, 1.78, -12.55, 2.20, 1.59, 7.34, repro,
2007-12-31,4.11, 2.04, -13.60, 2.15, 1.55, 7.08, repro,
2008-01-01,4.28, 2.00, -8.44, 2.14, 1.55, 7.10, repro,
2008-01-02,3.27, 1.11, -11.40, 2.13, 1.55, 7.07, repro,
2008-01-03,2.00, 1.92, 0.40, 2.12, 1.53, 7.02, repro,
2008-01-04,3.46, -1.26, -4.18, 2.14, 1.53, 7.09, repro,
2008-01-05,2.56, 0.39, 1.19, 2.12, 1.53, 7.00, repro,
2008-01-06,4.55, -0.15, -1.46, 2.18, 1.56, 7.15, repro,
2008-01-07,2.24, 2.06, -6.92, 2.12, 1.53, 7.01, repro,
2008-01-08,2.56, 2.32, -1.34, 2.18, 1.54, 7.14, repro,
2008-01-09,2.44, 1.43, -6.05, 2.17, 1.55, 7.16, repro,
2008-01-10,3.62, 1.67, -13.11, 2.17, 1.58, 7.17, repro,
2008-01-11,1.27, 3.29, -6.47, 2.11, 1.54, 7.01, repro,
2008-01-12,4.06, 0.77, -9.42, 2.16, 1.58, 7.09, repro,
2008-01-13,2.06, 1.85, -17.86, 2.10, 1.53, 6.93, repro,
2008-01-14,1.52, 1.59, -16.03, 2.11, 1.54, 7.01, repro,
2008-01-15,2.47, 0.96, -9.67, 2.10, 1.54, 6.97, repro,
2008-01-16,2.94, 1.46, -10.95, 2.14, 1.56, 7.12, repro,
2008-01-17,3.38, 2.47, -8.32, 2.15, 1.55, 7.10, repro,
2008-01-18,3.52, 1.71, -10.09, 2.11, 1.56, 7.08, repro,
2008-01-19,3.59, 1.50, -10.38, 2.14, 1.60, 7.19, repro,
2008-01-20,1.54, 2.10, -9.10, 2.10, 1.52, 6.95, repro,
2008-01-21,2.99, 2.39, -10.76, 2.09, 1.54, 7.01, repro,
2008-01-22,2.65, 2.41, -9.86, 2.09, 1.54, 6.99, repro,
2008-01-23,3.22, 2.26, -9.46, 2.10, 1.53, 6.96, repro,
2008-01-24,2.66, 1.64, -4.70, 2.08, 1.52, 6.91, repro,
2008-01-25,2.98, 1.61, -9.65, 2.09, 1.53, 6.98, repro,
2008-01-26,2.20, 1.79, -3.95, 2.08, 1.53, 6.93, repro,
2008-01-27,2.05, 1.86, -7.13, 2.08, 1.54, 6.95, repro,
2008-01-28,2.12, 1.77, -1.37, 2.10, 1.54, 7.01, repro,
2008-01-29,2.77, 1.59, -4.17, 2.19, 1.64, 7.31, repro,
2008-01-30,4.29, 3.70, -12.86, 2.21, 1.61, 7.37, repro,
2008-01-31,3.85, 3.34, -8.35, 2.09, 1.53, 6.98, repro,
2008-02-01,2.98, 3.52, -9.80, 2.08, 1.54, 6.99, repro,
2008-02-02,2.91, 2.49, -10.68, 2.08, 1.53, 6.94, repro,
2008-02-03,2.12, 1.15, -11.98, 2.10, 1.54, 7.00, repro,
2008-02-04,3.15, 2.60, -14.25, 2.09, 1.54, 6.98, repro,
2008-02-05,2.63, 3.40, -11.19, 2.15, 1.61, 7.23, repro,
2008-02-06,2.78, 2.72, -9.99, 2.12, 1.60, 7.15, repro,
2008-02-07,2.56, 2.69, -10.80, 2.12, 1.56, 7.13, repro,
2008-02-08,1.69, 2.45, -10.10, 2.08, 1.53, 6.95, repro,
2008-02-09,2.59, 3.23, -11.13, 2.10, 1.54, 7.00, repro,
2008-02-10,2.12, 2.19, -11.47, 2.11, 1.54, 7.03, repro,
2008-02-11,1.73, 2.44, -8.61, 2.09, 1.53, 6.97, repro,
2008-02-12,2.63, 2.44, -17.81, 2.07, 1.53, 6.92, repro,
2008-02-13,2.06, 1.89, -9.43, 2.08, 1.53, 6.92, repro,
2008-02-14,3.99, 0.92, -9.07, 2.09, 1.53, 6.96, repro,
2008-02-15,2.88, 0.49, -13.86, 2.12, 1.58, 7.08, repro,
2008-02-16,2.08, 1.49, -11.66, 2.10, 1.54, 7.02, repro,
2008-02-17,2.60, 1.75, -10.69, 2.08, 1.54, 6.95, repro,
2008-02-18,2.52, 1.91, -8.74, 2.07, 1.53, 6.93, repro,
2008-02-19,2.21, 1.14, -7.83, 2.08, 1.53, 6.90, repro,
2008-02-20,2.19, 1.64, -11.33, 2.08, 1.53, 6.93, repro,
2008-02-21,2.01, 1.66, -6.76, 2.11, 1.54, 7.00, repro,
2008-02-22,1.46, 2.32, -2.95, 2.11, 1.56, 7.04, repro,
2008-02-23,1.72, 2.88, -6.77, 2.09, 1.54, 6.98, repro,
2008-02-24,0.23, 1.81, -1.79, 2.08, 1.54, 6.95, repro,
2008-02-25,1.41, 2.53, -9.58, 2.15, 1.60, 7.25, repro,
2008-02-26,1.25, 2.06, -20.07, 2.10, 1.54, 6.97, repro,
2008-02-27,1.59, 1.77, -13.95, 2.15, 1.58, 7.17, repro,
2008-02-28,1.17, 1.94, -13.40, 2.12, 1.57, 7.09, repro,
2008-02-29,0.82, 2.30, -10.15, 2.09, 1.54, 7.03, repro,
2008-03-01,2.86, 2.13, -12.55, 2.08, 1.54, 6.94, repro,
2008-03-02,0.70, 2.90, -14.02, 2.12, 1.57, 7.06, repro,
2008-03-03,-0.30, 3.56, -19.43, 2.11, 1.55, 7.04, repro,
2008-03-04,1.75, 2.00, -15.69, 2.11, 1.54, 6.98, repro,
2008-03-05,3.13, 3.37, -14.65, 2.25, 1.76, 7.81, repro,
2008-03-06,0.95, 2.29, -12.04, 2.10, 1.54, 7.00, repro,
2008-03-07,0.88, 2.38, -14.61, 2.08, 1.53, 6.96, repro,
2008-03-08,0.44, 2.80, -9.06, 2.16, 1.63, 7.31, repro,
2008-03-09,0.48, 2.35, -5.18, 2.18, 1.61, 7.34, repro,
2008-03-10,0.41, 1.90, -4.80, 2.14, 1.59, 7.22, repro,
2008-03-11,1.79, 4.15, -15.27, 2.08, 1.56, 7.03, repro,
2008-03-12,2.65, 1.35, -12.31, 2.12, 1.58, 7.19, repro,
2008-03-13,0.60, 2.46, -0.23, 2.12, 1.57, 7.17, repro,
2008-03-14,2.33, 1.63, -9.39, 2.09, 1.54, 6.96, repro,
2008-03-15,1.37, 1.71, -12.02, 2.09, 1.54, 6.99, repro,
2008-03-16,1.52, 1.32, -7.75, 2.13, 1.58, 7.13, repro,
2008-03-17,1.62, 2.97, -7.94, 2.24, 1.70, 7.72, repro,
2008-03-18,1.21, 2.64, -7.87, 2.14, 1.60, 7.23, repro,
2008-03-19,1.23, 2.20, -12.71, 2.13, 1.57, 7.13, repro,
2008-03-20,3.93, 2.03, -11.54, 2.13, 1.57, 7.13, repro,
2008-03-21,2.65, 1.83, -14.75, 2.14, 1.57, 7.18, repro,
2008-03-22,2.94, 1.67, -17.24, 2.12, 1.57, 7.18, repro,
2008-03-23,3.39, 1.83, -17.84, 2.14, 1.59, 7.19, repro,
2008-03-24,3.06, 1.18, -14.46, 2.13, 1.57, 7.14, repro,
2008-03-25,2.35, 2.51, -11.50, 2.15, 1.60, 7.24, repro,
2008-03-26,2.55, 1.81, -10.91, 2.17, 1.61, 7.32, repro,
2008-03-27,2.71, 1.11, -10.68, 2.15, 1.60, 7.27, repro,
2008-03-28,2.40, 2.39, -9.10, 2.12, 1.56, 7.06, repro,
2008-03-29,5.21, 3.13, -12.29, 2.13, 1.54, 7.07, repro,
2008-03-30,2.72, 1.83, -12.18, 2.12, 1.53, 7.02, repro,
2008-03-31,3.98, 1.80, -13.99, 2.13, 1.54, 7.07, repro,
2008-04-01,2.49, 2.31, -9.38, 2.12, 1.54, 7.05, repro,
2008-04-02,2.33, 1.64, -10.32, 2.16, 1.55, 7.18, repro,
2008-04-03,2.91, 0.80, -13.06, 2.11, 1.53, 7.02, repro,
2008-04-04,2.57, 1.50, -10.90, 2.12, 1.53, 7.02, repro,
2008-04-05,3.43, 1.63, -8.62, 2.14, 1.54, 7.10, repro,
2008-04-06,1.44, 1.12, -6.72, 2.13, 1.55, 7.12, repro,
2008-04-07,2.20, 2.34, -14.81, 2.11, 1.53, 7.04, repro,
2008-04-08,1.87, 0.18, -9.75, 2.11, 1.53, 7.04, repro,
2008-04-09,2.39, 1.23, -7.95, 2.10, 1.53, 6.98, repro,
2008-04-10,2.84, 2.18, -12.09, 2.11, 1.53, 7.03, repro,
2008-04-11,1.96, 0.70, -14.67, 2.14, 1.55, 7.15, repro,
2008-04-12,1.35, 1.10, -10.86, 2.13, 1.55, 7.14, repro,
2008-04-13,2.10, 0.12, -9.82, 2.12, 1.53, 7.08, repro,
2008-04-14,0.97, -0.16, -6.55, 2.15, 1.59, 7.29, repro,
2008-04-15,1.74, 0.91, -3.90, 2.13, 1.57, 7.10, repro,
2008-04-16,2.40, 0.93, -9.73, 2.17, 1.59, 7.23, repro,
2008-04-17,2.02, 1.44, -12.94, 2.14, 1.55, 7.17, repro,
2008-04-18,2.76, 1.15, -7.48, 2.14, 1.54, 7.14, repro,
2008-04-19,2.42, 0.15, -7.52, 2.12, 1.54, 7.10, repro,
2008-04-20,2.77, 2.17, -3.99, 2.11, 1.52, 7.02, repro,
2008-04-21,1.19, 3.54, -6.72, 2.12, 1.53, 7.05, repro,
2008-04-22,1.85, 0.86, -9.92, 2.14, 1.55, 7.14, repro,
2008-04-23,0.40, 1.68, -6.99, 2.16, 1.56, 7.25, repro,
2008-04-24,2.35, 2.94, -11.07, 2.16, 1.56, 7.25, repro,
2008-04-25,2.48, 2.43, -13.32, 2.12, 1.53, 7.09, repro,
2008-04-26,1.73, 1.97, -17.50, 2.21, 1.56, 7.20, repro,
2008-04-27,1.20, 2.37, -18.42, 2.22, 1.57, 7.25, repro,
2008-04-28,1.67, 0.65, -11.55, 2.23, 1.57, 7.27, repro,
2008-04-29,2.04, 0.71, -6.21, 2.29, 1.58, 7.42, repro,
2008-04-30,0.34, 1.54, -9.70, 2.20, 1.59, 7.35, repro,
2008-05-01,1.64, 2.15, -12.45, 2.13, 1.53, 7.11, repro,
2008-05-02,1.50, 2.17, -7.72, 2.18, 1.60, 7.33, repro,
2008-05-03,1.83, 2.33, -11.36, 2.19, 1.58, 7.29, repro,
2008-05-04,0.30, 1.98, -6.50, 2.16, 1.55, 7.21, repro,
2008-05-05,1.97, 1.68, -6.77, 2.19, 1.59, 7.35, repro,
2008-05-06,3.53, 1.20, -10.89, 2.17, 1.58, 7.27, repro,
2008-05-07,2.58, 1.42, -6.46, 2.14, 1.55, 7.19, repro,
2008-05-08,2.19, 1.93, -12.03, 2.20, 1.61, 7.44, repro,
2008-05-09,1.93, 1.92, -7.68, 2.17, 1.56, 7.26, repro,
2008-05-10,2.27, 1.94, -5.60, 2.16, 1.53, 7.17, repro,
2008-05-11,1.49, 1.73, -8.45, 2.17, 1.56, 7.28, repro,
2008-05-12,0.66, 1.91, -4.13, 2.17, 1.57, 7.21, repro,
2008-05-13,1.90, 2.10, -2.54, 2.14, 1.54, 7.16, repro,
2008-05-14,1.47, 1.81, -12.41, 2.15, 1.54, 7.17, repro,
2008-05-15,-0.07, 1.05, -11.91, 2.15, 1.53, 7.14, repro,
2008-05-16,1.03, 0.74, -6.43, 2.15, 1.54, 7.15, repro,
2008-05-17,-0.74, 0.39, -7.68, 2.16, 1.55, 7.19, repro,
2008-05-18,0.73, 1.15, -7.14, 2.17, 1.58, 7.24, repro,
2008-05-19,1.53, 0.82, -6.68, 2.12, 1.52, 7.08, repro,
2008-05-20,1.72, 0.84, -11.04, 2.15, 1.54, 7.23, repro,
2008-05-21,1.11, 2.21, -2.93, 2.14, 1.53, 7.10, repro,
2008-05-22,2.06, 2.33, -1.20, 2.16, 1.57, 7.26, repro,
2008-05-23,1.52, 2.20, 0.24, 2.14, 1.56, 7.25, repro,
2008-05-24,1.41, 0.97, -7.54, 2.11, 1.52, 7.02, repro,
2008-05-25,1.73, 2.25, -4.80, 2.12, 1.52, 7.04, repro,
2008-05-26,1.08, 1.89, -5.75, 2.14, 1.56, 7.21, repro,
2008-05-27,1.49, 1.87, -6.22, 2.13, 1.53, 7.08, repro,
2008-05-28,0.65, 2.14, -9.43, 2.12, 1.53, 7.07, repro,
2008-05-29,2.18, 1.86, -6.68, 2.16, 1.57, 7.21, repro,
2008-05-30,2.21, 2.41, -6.72, 2.13, 1.51, 7.04, repro,
2008-05-31,2.17, 2.95, -9.93, 2.12, 1.51, 7.01, repro,
2008-06-01,2.40, 2.39, -6.77, 2.12, 1.53, 7.09, repro,
2008-06-02,2.21, 2.30, -9.38, 2.14, 1.53, 7.12, repro,
2008-06-03,3.07, 2.96, -4.88, 2.18, 1.59, 7.33, repro,
2008-06-04,1.79, 1.60, -4.86, 2.12, 1.53, 7.05, repro,
2008-06-05,2.32, 2.61, -4.73, 2.14, 1.53, 7.10, repro,
2008-06-06,2.90, 2.08, -9.37, 2.17, 1.56, 7.17, repro,
2008-06-07,2.02, 1.89, -4.24, 2.19, 1.59, 7.28, repro,
2008-06-08,1.89, 2.22, -7.21, 2.19, 1.58, 7.29, repro,
2008-06-09,2.62, 2.63, -9.13, 2.20, 1.58, 7.31, repro,
2008-06-10,2.61, 1.79, -10.33, 2.14, 1.52, 7.07, repro,
2008-06-11,1.21, 0.21, -10.20, 2.13, 1.52, 7.06, repro,
2008-06-12,1.19, 1.13, -10.67, 2.13, 1.54, 7.11, repro,
2008-06-13,2.08, 1.06, -10.72, 2.14, 1.53, 7.16, repro,
2008-06-14,1.77, -0.96, -5.48, 2.19, 1.58, 7.28, repro,
2008-06-15,2.22, 0.22, -8.99, 2.22, 1.63, 7.38, repro,
2008-06-16,2.84, -0.65, -11.28, 2.14, 1.52, 7.11, repro,
2008-06-17,2.24, -0.04, -8.13, 2.14, 1.52, 7.11, repro,
2008-06-18,2.72, 0.51, -10.62, 2.12, 1.52, 7.06, repro,
2008-06-19,1.59, -0.10, -12.64, 2.21, 1.62, 7.51, repro,
2008-06-20,1.44, -0.83, -8.02, 2.13, 1.52, 7.06, repro,
2008-06-21,1.60, -0.47, -0.22, 2.28, 1.69, 7.67, repro,
2008-06-22,1.02, -0.16, -14.32, 2.12, 1.51, 7.01, repro,
2008-06-23,2.21, -0.31, -13.04, 2.13, 1.53, 7.10, repro,
2008-06-24,1.37, 0.39, -9.52, 2.14, 1.53, 7.08, repro,
2008-06-25,0.91, -0.31, -1.00, 2.14, 1.53, 7.08, repro,
2008-06-26,3.10, -0.51, -3.15, 2.14, 1.57, 7.18, repro,
2008-06-27,1.16, -0.56, -5.05, 2.11, 1.51, 6.98, repro,
2008-06-28,2.03, -0.82, -8.88, 2.13, 1.52, 7.05, repro,
2008-06-29,2.28, -0.95, -1.22, 2.13, 1.53, 7.09, repro,
2008-06-30,2.91, -2.08, -7.81, 2.12, 1.52, 7.05, repro,
2008-07-01,1.46, -1.19, -7.94, 2.13, 1.53, 7.10, repro,
2008-07-02,2.82, -0.49, -12.10, 2.12, 1.52, 7.03, repro,
2008-07-03,0.74, -2.40, 0.34, 2.13, 1.52, 7.06, repro,
2008-07-04,1.66, -0.41, -8.19, 2.14, 1.54, 7.14, repro,
2008-07-05,1.96, -1.25, -10.53, 2.15, 1.53, 7.15, repro,
2008-07-06,1.78, -0.77, 0.32, 2.13, 1.52, 7.07, repro,
2008-07-07,2.36, -1.57, -1.19, 2.16, 1.57, 7.17, repro,
2008-07-08,0.95, 0.41, -5.48, 2.12, 1.52, 7.00, repro,
2008-07-09,0.43, -0.11, 2.30, 2.14, 1.53, 7.08, repro,
2008-07-10,1.68, -1.47, 4.19, 2.19, 1.57, 7.20, repro,
2008-07-11,2.51, -1.32, -2.88, 2.32, 1.69, 7.66, repro,
2008-07-12,2.55, -2.66, -3.82, 2.14, 1.52, 7.05, repro,
2008-07-13,1.31, -1.69, -4.21, 2.15, 1.58, 7.18, repro,
2008-07-14,1.58, -1.63, 2.09, 2.14, 1.53, 7.09, repro,
2008-07-15,2.38, -0.83, -7.07, 2.14, 1.53, 7.11, repro,
2008-07-16,1.01, -0.92, -6.46, 2.20, 1.56, 7.21, repro,
2008-07-17,1.11, -0.70, -2.51, 2.13, 1.52, 7.02, repro,
2008-07-18,2.60, -0.14, -3.35, 2.25, 1.57, 7.30, repro,
2008-07-19,1.34, -0.07, -1.34, 2.17, 1.53, 7.17, repro,
2008-07-20,1.99, -0.22, -0.16, 2.12, 1.53, 7.05, repro,
2008-07-21,1.68, -0.36, 0.82, 2.13, 1.54, 7.06, repro,
2008-07-22,1.90, -1.39, -2.29, 2.14, 1.53, 7.05, repro,
2008-07-23,1.45, -0.50, 0.03, 2.18, 1.52, 7.08, repro,
2008-07-24,0.85, -0.52, -4.40, 2.12, 1.51, 6.97, repro,
2008-07-25,1.94, -1.96, 0.82, 2.13, 1.52, 7.03, repro,
2008-07-26,0.89, -0.95, 2.12, 2.12, 1.53, 7.05, repro,
2008-07-27,2.27, -2.26, 2.38, 2.13, 1.52, 7.06, repro,
2008-07-28,1.59, -1.85, 5.22, 2.24, 1.60, 7.31, repro,
2008-07-29,1.41, -0.20, 1.58, 2.20, 1.54, 7.25, repro,
2008-07-30,1.22, -0.89, 5.20, 2.17, 1.53, 7.22, repro,
2008-07-31,0.49, -0.93, 2.33, 2.12, 1.52, 7.05, repro,
2008-08-01,0.86, -0.14, 0.97, 2.14, 1.53, 7.07, repro,
2008-08-02,0.69, -1.95, 6.78, 2.13, 1.53, 7.05, repro,
2008-08-03,2.59, -1.86, 3.02, 2.18, 1.57, 7.21, repro,
2008-08-04,1.82, -1.51, 1.33, 2.10, 1.51, 6.97, repro,
2008-08-05,2.00, -0.99, 0.38, 2.11, 1.51, 6.97, repro,
2008-08-06,0.57, -0.70, 0.97, 2.18, 1.55, 7.16, repro,
2008-08-07,1.23, -1.00, -2.22, 2.24, 1.59, 7.35, repro,
2008-08-08,3.15, -1.60, -0.09, 2.24, 1.58, 7.28, repro,
2008-08-09,0.98, -1.62, 5.14, 2.17, 1.52, 7.06, repro,
2008-08-10,1.12, -1.69, -2.13, 2.17, 1.52, 7.07, repro,
2008-08-11,0.89, -1.81, -3.05, 2.18, 1.54, 7.17, repro,
2008-08-12,1.11, -1.30, -2.64, 2.18, 1.54, 7.20, repro,
2008-08-13,1.20, -2.03, 0.08, 2.18, 1.53, 7.19, repro,
2008-08-14,2.27, -2.05, -3.88, 2.17, 1.53, 7.08, repro,
2008-08-15,1.13, -0.94, -2.19, 2.16, 1.52, 7.08, repro,
2008-08-16,1.43, -1.86, 1.67, 2.18, 1.53, 7.11, repro,
2008-08-17,2.72, -2.98, 4.76, 2.29, 1.65, 7.64, repro,
2008-08-18,0.17, -2.96, 13.94, 2.23, 1.57, 7.31, repro,
2008-08-19,2.99, -0.16, 3.97, 2.19, 1.55, 7.17, repro,
2008-08-20,1.91, -0.62, 3.90, 2.16, 1.53, 7.10, repro,
2008-08-21,1.40, -1.50, 3.01, 2.18, 1.53, 7.16, repro,
2008-08-22,1.13, -2.65, 1.67, 2.19, 1.53, 7.13, repro,
2008-08-23,-0.33, -2.20, 0.83, 2.19, 1.54, 7.17, repro,
2008-08-24,1.20, -2.10, -0.15, 2.20, 1.56, 7.27, repro,
2008-08-25,0.99, -3.55, -4.93, 2.19, 1.56, 7.30, repro,
2008-08-26,1.45, -2.02, 0.96, 2.17, 1.53, 7.14, repro,
2008-08-27,1.51, -1.49, -2.19, 2.21, 1.57, 7.29, repro,
2008-08-28,0.51, -2.20, 1.41, 2.35, 1.64, 7.54, repro,
2008-08-29,2.02, -2.66, -2.53, 2.30, 1.66, 7.67, repro,
2008-08-30,0.88, -2.97, 5.05, 2.26, 1.60, 7.40, repro,
2008-08-31,0.83, -1.73, -1.75, 2.20, 1.55, 7.20, repro,
2008-09-01,1.83, -2.20, -2.77, 2.20, 1.56, 7.25, repro,
2008-09-02,1.89, -0.27, -7.59, 2.22, 1.56, 7.24, repro,
2008-09-03,1.56, -1.64, -1.65, 2.23, 1.57, 7.26, repro,
2008-09-04,0.77, -2.24, -5.31, 2.34, 1.67, 7.78, repro,
2008-09-05,-0.54, -1.36, -0.80, 2.24, 1.61, 7.35, repro,
2008-09-06,1.34, -1.97, -1.27, 2.18, 1.55, 7.15, repro,
2008-09-07,0.37, -0.22, -0.53, 2.20, 1.56, 7.28, repro,
2008-09-08,0.63, -1.43, -1.41, 2.21, 1.56, 7.25, repro,
2008-09-09,1.89, -1.63, 2.19, 2.27, 1.56, 7.31, repro,
2008-09-10,1.66, -0.56, 2.07, 2.23, 1.58, 7.29, repro,
2008-09-11,1.49, -1.71, -1.66, 2.21, 1.58, 7.26, repro,
2008-09-12,1.36, -2.31, 0.45, 2.23, 1.59, 7.31, repro,
2008-09-13,1.73, -0.68, 3.79, 2.24, 1.58, 7.29, repro,
2008-09-14,2.11, -0.36, -1.17, 2.29, 1.63, 7.50, repro,
2008-09-15,1.28, -0.07, 0.25, 2.21, 1.56, 7.23, repro,
2008-09-16,1.87, -1.22, -2.43, 2.18, 1.57, 7.21, repro,
2008-09-17,2.31, -1.42, -5.28, 2.25, 1.61, 7.40, repro,
2008-09-18,1.79, -0.14, -2.93, 2.18, 1.53, 7.10, repro,
2008-09-19,2.01, -1.60, -5.39, 2.18, 1.53, 7.11, repro,
2008-09-20,1.24, -1.90, -0.46, 2.20, 1.54, 7.14, repro,
2008-09-21,1.72, -0.58, 2.26, 2.18, 1.53, 7.11, repro,
2008-09-22,1.79, -2.76, -1.26, 2.26, 1.59, 7.44, repro,
2008-09-23,1.74, -0.70, -1.29, 2.17, 1.53, 7.09, repro,
2008-09-24,0.91, -0.87, -2.22, 2.29, 1.62, 7.54, repro,
2008-09-25,1.07, 0.32, 3.51, 2.21, 1.54, 7.18, repro,
2008-09-26,2.06, -0.53, -2.69, 2.19, 1.53, 7.10, repro,
2008-09-27,1.74, -1.80, -1.82, 2.21, 1.56, 7.18, repro,